Location: Gro� Glienicke
(52.4675°N, 13.1079°E)
Time: 08:25:55
(UTC+00:00)

Sich 1 - Pass Details

Date: 06 July 2020
Orbit: 595 x 624 km, 82.5° (Epoch: 04 August)

Event Time Altitude Azimuth Distance (km) Brightness Sun altitude
Exits shadow 23:29:51 19° 147° (SSE) 1,442 4.5 -14.9°
Maximum altitude 23:32:22 36° 91° (E) 960 4.0 -14.9°
Drops below altitude 10° 23:36:22 10° 25° (NNE) 1,973 6.8 -14.8°
Sets 23:38:43 0° 17° (NNE) 2,888 8.2 -14.8°
